Location: Koussan�
(15.2012°N, 12.5548°W)
Time: 00:31:23
(UTC+00:00)

NOAA 15 - Pass Details

Date: 20 October 2020
Orbit: 797 x 813 km, 98.7° (Epoch: 25 November)

Event Time Altitude Azimuth Distance (km) Brightness Sun altitude
Rises 19:40:41 0° 162° (SSE) 3,308 7.7 -18.5°
Reaches altitude 10° 19:43:01 10° 159° (SSE) 2,380 6.9 -19.1°
Maximum altitude 19:48:15 69° 77° (ENE) 863 4.5 -20.3°
Drops below altitude 10° 19:53:30 10° 354° (N) 2,392 7.1 -21.6°
Sets 19:55:51 0° 352° (N) 3,325 7.8 -22.1°
